Location: Silent Lake
(44.9206°N, 78.0708°W)
Time: 23:05:47
(UTC-05:00)

Daily predictions for brighter satellites

Satellite Brightness Start Highest point End
(mag) Time Altitude Azimuth Time Altitude Azimuth Time Altitude Azimuth
NOSS 3-1 (C) 3.7 16:52:27 10° SW 16:58:12 72° NW 17:04:47 10° NE
Cosmos 2219 3.9 16:54:50 10° N 16:59:46 30° NE 17:04:40 10° ESE
Cosmos 2227 Rocket 3.7 16:57:36 10° N 17:00:53 15° NE 17:04:09 10° ENE
Cosmos 2285 Rocket 4.1 16:57:36 10° NNW 17:03:56 88° ENE 17:10:16 10° SSE
Cosmos 2151 Rocket 4.3 17:00:03 10° NNW 17:04:27 61° W 17:08:53 10° S
Okean 3 3.5 17:02:57 10° S 17:07:01 56° E 17:11:10 10° NNE
Cosmos 1536 3.3 17:04:08 10° NNW 17:08:07 66° W 17:12:03 10° S
Cosmos 1271 Rocket 4.4 17:06:25 10° NE 17:08:16 13° ENE 17:10:07 10° E
Cosmos 1484 Rocket 3.2 17:04:41 10° SE 17:08:29 43° ENE 17:12:18 10° N
USA 161 1.6 17:07:54 10° N 17:10:35 72° WNW 17:13:26 10° SSW
CZ-2C R/B 3.1 17:07:51 10° S 17:12:59 65° WSW 17:18:10 10° NNW
Cosmos 1500 3.4 17:13:16 10° N 17:16:58 48° ENE 17:20:36 10° SSE
Nadezhda 4 Rocket 4.3 17:11:22 10° NNW 17:17:29 71° W 17:23:36 10° S
Cosmos 1455 Rocket 4.4 17:14:58 10° NNE 17:18:09 19° ENE 17:21:17 10° ESE
Cosmos 1680 Rocket 3.7 17:12:57 10° NNW 17:18:14 78° WSW 17:23:31 10° SSE
ATLAS 2AS CENTAUR R/B 4.0 17:12:37 10° SSE 17:18:54 28° ESE 17:25:22 10° NE
Cosmos 1607 4.1 17:14:08 10° NNW 17:20:34 60° NE 17:26:56 10° SE
Cosmos 1656 Rocket 3.7 17:15:59 10° S 17:21:27 61° ESE 17:26:52 10° NNE
NOSS 2-3 (E) 4.5 17:17:55 10° S 17:22:12 38° ESE 17:26:53 11° NE
YAOGAN 1 3.2 17:22:10 10° SE 17:26:04 34° ENE 17:30:00 10° N
IDEFIX/ARIANE 42P 4.3 17:21:51 10° SSW 17:26:37 37° W 17:31:24 10° NNW
Cosmos 2297 Rocket 3.5 17:24:54 10° N 17:29:00 20° NE 17:32:42 11° E
Cosmos 1300 Rocket 4.5 17:24:57 10° NNW 17:29:13 52° W 17:33:29 10° S
ATLAS 3B R/B 3.3 17:25:37 10° NNW 17:31:40 33° NE 17:37:31 10° E
IRAS Rocket 4.3 17:27:03 10° SSE 17:32:34 85° WSW 17:38:04 10° NNW
CORIOLIS 4.1 17:27:34 10° SSE 17:32:57 67° ENE 17:38:20 10° N
Cosmos 1818 3.7 17:27:49 10° SSW 17:33:09 62° ESE 17:38:12 12° NE
Meteor 1-12 Rocket 4.4 17:28:14 10° N 17:33:45 51° ENE 17:39:17 10° SSE
NOSS 3-1 (A) 3.9 17:28:13 10° SW 17:33:57 59° NW 17:40:31 10° NNE
COSMO-SKYMED 1 3.6 17:32:31 11° NE 17:35:57 25° E 17:39:33 10° SSE
Cosmos 1812 3.0 17:32:55 10° SSW 17:36:46 69° W 17:40:39 10° N
SMAP 3.0 17:34:43 10° SSE 17:39:22 88° ENE 17:44:04 10° NNW
Cosmos 389 Rocket 3.1 17:37:43 10° N 17:40:57 33° ENE 17:44:07 10° SE
Aureole 1 Rocket 3.9 17:36:19 10° NNW 17:41:40 61° ENE 17:48:38 10° SSE
CZ-2C R/B 4.0 17:37:39 10° NNE 17:42:11 50° E 17:46:45 10° S
ISS -2.7 17:39:24 10° NW 17:42:20 29° NNE 17:43:43 21° NE
BREEZE-M DEB (TANK) 3.6 17:39:57 10° WNW 17:42:21 40° NNE 17:45:05 18° ENE
ERS-2 2.9 17:41:11 10° SE 17:44:24 30° ENE 17:47:40 10° N
Cosmos 1655 Rocket 4.1 17:38:33 10° N 17:44:52 61° ENE 17:51:10 10° SSE
Cosmos 1943 Rocket 3.3 17:40:14 10° SW 17:45:32 41° WNW 17:50:55 10° NNE
Cosmos 1634 Rocket 4.0 17:40:21 10° S 17:46:33 87° W 17:52:50 10° N
Cosmos 1898 Rocket 3.4 17:41:49 10° SSW 17:46:59 73° ESE 17:52:14 10° NNE
ALOS 2.9 17:43:52 10° SE 17:48:00 32° ENE 17:52:09 10° N
USA 116 3.4 17:45:57 12° NNE 17:48:54 50° E 17:51:59 10° S
Cosmos 1666 3.2 17:46:16 10° N 17:49:46 34° ENE 17:53:12 10° SE
Cosmos 1975 Rocket 3.0 17:46:09 10° S 17:50:34 69° E 17:55:04 10° NNE
IRS-1A Rocket 4.2 17:46:09 10° SSE 17:51:46 75° ENE 17:57:19 10° NNW
Ariane Rocket 3.3 17:46:50 10° S 17:51:53 69° WSW 17:56:57 10° NNW
Cosmos 2298 Rocket 4.1 17:48:21 10° S 17:53:32 57° ESE 17:58:10 13° NNE
Okean 1 Rocket 4.3 17:49:47 10° NNW 17:54:04 46° W 17:58:21 10° SSW
Abrixas rocket 3.6 17:51:21 10° SSW 17:54:07 26° SE 17:55:07 22° ESE
MTI 4.2 17:56:22 28° NE 17:57:31 40° E 18:00:36 10° S
NOSS 2-3 (C) 3.8 17:52:55 10° SSW 17:57:33 74° SE 18:01:26 19° NE
Meteor 1-4 Rocket 4.4 17:55:52 10° NNW 17:59:15 34° W 18:02:33 10° SSW
SJ 16-02 3.5 17:59:54 10° SE 18:00:16 11° SE 18:00:16 11° SE
ATLAS CENTAUR R/B 4.0 18:00:49 10° WNW 18:04:00 23° WSW 18:07:19 10° SSW
Atlas Centaur 2 4.0 18:04:08 10° S 18:05:08 11° S 18:06:06 10° SSE
Cosmos 1937 Rocket 3.4 18:01:17 10° SSW 18:06:28 78° ESE 18:10:51 15° NNE
EO 1 Del DPAF 3.6 18:06:52 32° NE 18:08:05 42° E 18:11:43 10° S
Okean 1 3.8 18:09:05 10° SSW 18:13:00 60° W 18:16:57 10° N
Cosmos 2266 Rocket 4.1 18:08:45 10° N 18:14:38 49° ENE 18:20:31 10° SSE
CENTAUR R/B 4.1 18:11:08 10° NNW 18:17:02 24° NNE 18:19:14 21° NE
Cosmos 1536 Rocket 3.9 18:14:34 10° SSE 18:18:41 42° E 18:19:12 40° ENE
Cosmos 1743 2.7 18:15:46 10° N 18:19:38 86° W 18:23:31 10° S
Meteor 1-28 Rocket 4.2 18:16:22 10° N 18:19:56 45° WNW 18:23:31 10° SW
Cosmos 1975 3.7 18:17:14 10° NNW 18:21:09 51° W 18:25:04 10° S
CZ-4 R/B 2.7 18:18:33 10° SSW 18:22:10 39° W 18:25:51 10° NNW
Cosmos 2369 Rocket 4.5 18:20:07 10° W 18:23:42 17° NW 18:27:19 10° N
SKYMED 2 3.4 18:21:08 19° NNE 18:24:13 81° ESE 18:28:33 10° S
USA 238 DEB 3.8 18:17:13 10° NW 18:24:16 62° NE 18:29:38 18° ESE
USA 238 3.8 18:17:19 10° NNW 18:24:21 61° NE 18:29:39 19° ESE
Cosmos 2082 3.9 18:23:50 10° NNW 18:29:14 45° ENE 18:30:33 38° E
FENGYUN 3A 3.6 18:31:38 10° SSE 18:37:01 89° E 18:42:26 10° NNW
Cosmos 2150 Rocket 4.4 18:34:27 10° SSW 18:39:53 67° WNW 18:43:44 20° NNE
BREEZE-M DEB (TANK) 3.4 18:38:33 10° WNW 18:41:07 45° N 18:41:07 45° N
Cosmos 468 4.4 18:36:35 10° NNW 18:41:56 71° ENE 18:45:31 21° SSE
NOSS 2-3 (D) 4.4 18:37:36 10° SW 18:42:14 55° NW 18:44:39 30° NNE
SPOT 3 Rocket 3.7 18:38:49 10° S 18:44:00 75° WSW 18:49:13 10° NNW
Cosmos 2219 4.2 18:38:45 10° NW 18:44:06 46° WSW 18:49:26 10° S
Cosmos 1271 Rocket 3.6 18:40:57 10° NNW 18:44:35 47° W 18:48:14 10° S
Cosmos 2227 Rocket 2.0 18:40:17 10° NNW 18:45:59 74° ENE 18:48:56 29° SE
DMSP B5D1-3 4.4 18:46:42 36° NNE 18:48:51 82° ESE 18:53:58 10° SSW
Meteor 1-13 Rocket 4.3 18:47:45 10° SSW 18:53:18 73° WNW 18:58:11 14° N
Meteor 2-9 Rocket 4.2 18:48:53 10° NNW 18:54:29 78° W 18:59:54 10° S
Cosmos 1455 Rocket 4.2 18:51:59 10° NNW 18:56:13 43° W 19:00:23 10° SSW
NOSS 3-2 (A) 4.0 18:49:47 10° NNW 18:57:07 60° NE 18:59:15 47° E
NOSS 3-2 (C) 4.1 18:53:26 10° NNW 19:00:37 52° NE 19:01:37 49° ENE
Meteor 1-15 Rocket 4.2 18:58:26 10° N 19:04:23 76° ENE 19:10:18 10° SSE
ATLAS 2AS CENTAUR R/B 3.1 19:01:22 10° SW 19:09:12 78° NW 19:12:51 37° NNE
COSMO-SKYMED 1 4.2 19:09:44 19° NNW 19:12:08 32° WNW 19:16:00 10° SW
Cosmos 2297 Rocket 2.2 19:08:04 10° NNW 19:13:45 81° WSW 19:14:38 64° S
Meteor 2-4 Rocket 4.0 19:09:26 10° SSW 19:14:53 61° WNW 19:17:10 33° N
ISS -0.8 19:15:47 10° WNW 19:16:24 15° WNW 19:16:24 15° WNW
ATLAS 3B R/B 2.8 19:16:13 10° NW 19:22:50 67° WSW 19:25:15 40° S
ALOS 4.1 19:21:23 10° SSW 19:25:25 29° W 19:29:30 10° NW
Nadezhda 2 Rocket 4.4 19:19:36 10° N 19:25:54 84° W 19:32:15 10° S
Cosmos 2369 4.3 19:33:33 10° SSW 19:37:45 51° SW 19:37:45 51° SW
SJ 16-02 3.7 19:36:07 10° SSW 19:37:21 18° SW 19:37:21 18° SW
Cosmos 1125 Rocket 4.5 19:35:18 10° SSW 19:39:01 43° SW 19:39:01 43° SW
Cosmos 2278 4.5 19:36:34 10° SSW 19:40:30 46° SW 19:40:30 46° SW
CENTAUR R/B 3.9 20:01:44 10° NNW 20:06:26 39° NNW 20:06:26 39° NNW
